Year,Month,Day,Hour,Minute,Value (Times are PST for temperature in C)
2013,09,22,12,55,12.50
2013,09,22,12,56,12.50
2013,09,22,12,57,12.60
2013,09,22,12,58,12.60
2013,09,22,12,59,12.60
2013,09,22,13,00,12.70
2013,09,22,13,01,12.70
2013,09,22,13,02,12.70
2013,09,22,13,03,12.70
2013,09,22,13,04,12.80
2013,09,22,13,05,12.80
2013,09,22,13,06,12.90
2013,09,22,13,07,12.90
2013,09,22,13,08,13.00
2013,09,22,13,09,13.00
2013,09,22,13,10,13.10
2013,09,22,13,11,13.10
2013,09,22,13,12,13.20
2013,09,22,13,13,13.20
2013,09,22,13,14,13.30
2013,09,22,13,15,13.30
2013,09,22,13,16,13.30
2013,09,22,13,17,13.30
2013,09,22,13,18,13.30
2013,09,22,13,19,13.40
2013,09,22,13,20,13.40
2013,09,22,13,21,13.40
2013,09,22,13,22,13.50
2013,09,22,13,23,13.50
2013,09,22,13,24,13.50
2013,09,22,13,25,13.60
2013,09,22,13,26,13.60
2013,09,22,13,27,13.60
2013,09,22,13,28,13.70
2013,09,22,13,29,13.70
2013,09,22,13,30,13.80
2013,09,22,13,31,13.80
2013,09,22,13,32,13.80
2013,09,22,13,33,13.80
2013,09,22,13,34,13.80
2013,09,22,13,35,13.90
2013,09,22,13,36,13.90
2013,09,22,13,37,13.90
2013,09,22,13,38,14.00
2013,09,22,13,39,14.10
2013,09,22,13,40,14.10
2013,09,22,13,41,14.10
2013,09,22,13,42,14.20
2013,09,22,13,43,14.20
2013,09,22,13,44,14.20
2013,09,22,13,45,14.20
2013,09,22,13,46,14.20
2013,09,22,13,47,14.10
2013,09,22,13,48,14.10
2013,09,22,13,49,14.10
2013,09,22,13,50,14.10
2013,09,22,13,51,14.00
2013,09,22,13,52,14.00
2013,09,22,13,53,13.90
2013,09,22,13,54,13.90
2013,09,22,13,55,13.90
2013,09,22,13,56,13.80
2013,09,22,13,57,13.80
2013,09,22,13,58,13.80
2013,09,22,13,59,13.80
2013,09,22,14,00,13.80
2013,09,22,14,01,13.80
2013,09,22,14,02,13.80
2013,09,22,14,03,13.80
2013,09,22,14,04,13.80
2013,09,22,14,05,13.80
2013,09,22,14,06,13.80
2013,09,22,14,07,13.80
2013,09,22,14,08,13.80
2013,09,22,14,09,13.80
2013,09,22,14,10,13.80
2013,09,22,14,11,13.80
2013,09,22,14,12,13.80
2013,09,22,14,13,13.80
2013,09,22,14,14,13.80
2013,09,22,14,15,13.80
2013,09,22,14,16,13.90
2013,09,22,14,17,13.90
2013,09,22,14,18,13.90
2013,09,22,14,19,13.90
2013,09,22,14,20,13.90
2013,09,22,14,21,13.90
2013,09,22,14,22,14.00
2013,09,22,14,23,14.00
2013,09,22,14,24,14.00
2013,09,22,14,25,14.00
2013,09,22,14,26,14.00
2013,09,22,14,27,14.00
2013,09,22,14,28,14.00
2013,09,22,14,29,14.00
2013,09,22,14,30,14.00
2013,09,22,14,31,14.10
2013,09,22,14,32,14.10
2013,09,22,14,33,14.10
2013,09,22,14,34,14.10
2013,09,22,14,35,14.10
2013,09,22,14,36,14.10
2013,09,22,14,37,14.10
2013,09,22,14,38,14.10
2013,09,22,14,39,14.10
2013,09,22,14,40,14.10
2013,09,22,14,41,14.10
2013,09,22,14,42,14.10
2013,09,22,14,43,14.20
2013,09,22,14,44,14.20
2013,09,22,14,45,14.20
2013,09,22,14,46,14.20
2013,09,22,14,47,14.20
2013,09,22,14,48,14.20
2013,09,22,14,49,14.20
2013,09,22,14,50,14.30
2013,09,22,14,51,14.30
2013,09,22,14,52,14.30
2013,09,22,14,53,14.40
2013,09,22,14,54,14.40
2013,09,22,14,55,14.40
2013,09,22,14,56,14.50
2013,09,22,14,57,14.50
2013,09,22,14,58,14.60
2013,09,22,14,59,14.60
2013,09,22,15,00,14.70
2013,09,22,15,01,14.70
2013,09,22,15,02,14.70
2013,09,22,15,03,14.70
2013,09,22,15,04,14.80
2013,09,22,15,05,14.80
2013,09,22,15,06,14.80
2013,09,22,15,07,14.90
2013,09,22,15,08,14.90
2013,09,22,15,09,14.90
2013,09,22,15,10,14.80
2013,09,22,15,11,14.80
2013,09,22,15,12,14.80
2013,09,22,15,13,14.80
2013,09,22,15,14,14.80
2013,09,22,15,15,14.80
2013,09,22,15,16,14.80
2013,09,22,15,17,14.80
2013,09,22,15,18,14.80
2013,09,22,15,19,14.80
2013,09,22,15,20,14.70
2013,09,22,15,21,14.70
2013,09,22,15,22,14.70
2013,09,22,15,23,14.70
2013,09,22,15,24,14.70
2013,09,22,15,25,14.70
2013,09,22,15,26,14.80
2013,09,22,15,27,14.80
2013,09,22,15,28,14.80
2013,09,22,15,29,14.90
2013,09,22,15,30,14.90
2013,09,22,15,31,14.90
2013,09,22,15,32,15.00
2013,09,22,15,33,15.00
2013,09,22,15,34,15.10
2013,09,22,15,35,15.10
2013,09,22,15,36,15.10
2013,09,22,15,37,15.10
2013,09,22,15,38,15.00
2013,09,22,15,39,15.00
2013,09,22,15,40,14.90
2013,09,22,15,41,14.90
2013,09,22,15,42,14.80
2013,09,22,15,43,14.80
2013,09,22,15,44,14.80
2013,09,22,15,45,14.80
2013,09,22,15,46,14.80
2013,09,22,15,47,14.80
2013,09,22,15,48,14.80
2013,09,22,15,49,14.80
2013,09,22,15,50,14.70
2013,09,22,15,51,14.70
2013,09,22,15,52,14.70
2013,09,22,15,53,14.70
2013,09,22,15,54,14.60
2013,09,22,15,55,14.60
2013,09,22,15,56,14.60
2013,09,22,15,57,14.60
2013,09,22,15,58,14.60
2013,09,22,15,59,14.60
2013,09,22,16,00,14.50
2013,09,22,16,01,14.50
2013,09,22,16,02,14.50
2013,09,22,16,03,14.50
2013,09,22,16,04,14.50
2013,09,22,16,05,14.50
2013,09,22,16,06,14.50
2013,09,22,16,07,14.50
2013,09,22,16,08,14.50
2013,09,22,16,09,14.50
2013,09,22,16,10,14.50
2013,09,22,16,11,14.50
2013,09,22,16,12,14.50
2013,09,22,16,13,14.50
2013,09,22,16,14,14.50
2013,09,22,16,15,14.60
2013,09,22,16,16,14.60
2013,09,22,16,17,14.60
2013,09,22,16,18,14.70
2013,09,22,16,19,14.70
2013,09,22,16,20,14.70
2013,09,22,16,21,14.80
2013,09,22,16,22,14.80
2013,09,22,16,23,14.80
2013,09,22,16,24,14.80
2013,09,22,16,25,14.80
2013,09,22,16,26,14.80
2013,09,22,16,27,14.80
2013,09,22,16,28,14.80
2013,09,22,16,29,14.80
2013,09,22,16,30,14.80
2013,09,22,16,31,14.80
2013,09,22,16,32,14.80
2013,09,22,16,33,14.80
2013,09,22,16,34,14.80
2013,09,22,16,35,14.80
2013,09,22,16,36,14.80
2013,09,22,16,37,14.80
2013,09,22,16,38,14.80
2013,09,22,16,39,14.80
2013,09,22,16,40,14.80
2013,09,22,16,41,14.80
2013,09,22,16,42,14.80
2013,09,22,16,43,14.90
2013,09,22,16,44,14.90
2013,09,22,16,45,14.90
2013,09,22,16,46,15.00
2013,09,22,16,47,15.00
2013,09,22,16,48,15.00
2013,09,22,16,49,15.10
2013,09,22,16,50,15.10
2013,09,22,16,51,15.10
2013,09,22,16,52,15.10
2013,09,22,16,53,15.10
2013,09,22,16,54,15.10
2013,09,22,16,55,15.00
2013,09,22,16,56,15.00
2013,09,22,16,57,15.00
2013,09,22,16,58,14.90
2013,09,22,16,59,14.90
2013,09,22,17,00,14.90
2013,09,22,17,01,14.90
2013,09,22,17,02,15.00
2013,09,22,17,03,15.00
2013,09,22,17,04,15.00
2013,09,22,17,05,15.10
2013,09,22,17,06,15.10
2013,09,22,17,07,15.20
2013,09,22,17,08,15.20
2013,09,22,17,09,15.20
2013,09,22,17,10,15.20
2013,09,22,17,11,15.20
2013,09,22,17,12,15.20
2013,09,22,17,13,15.20
2013,09,22,17,14,15.20
2013,09,22,17,15,15.20
2013,09,22,17,16,15.20
2013,09,22,17,17,15.20
2013,09,22,17,18,15.20
2013,09,22,17,19,15.20
2013,09,22,17,20,15.20
2013,09,22,17,21,15.20
2013,09,22,17,22,15.10
2013,09,22,17,23,15.10
2013,09,22,17,24,15.00
2013,09,22,17,25,14.90
2013,09,22,17,26,14.90
2013,09,22,17,27,14.80
2013,09,22,17,28,14.70
2013,09,22,17,29,14.70
2013,09,22,17,30,14.60
2013,09,22,17,31,14.60
2013,09,22,17,32,14.50
2013,09,22,17,33,14.50
2013,09,22,17,34,14.40
2013,09,22,17,35,14.40
2013,09,22,17,36,14.30
2013,09,22,17,37,14.30
2013,09,22,17,38,14.20
2013,09,22,17,39,14.20
2013,09,22,17,40,14.20
2013,09,22,17,41,14.20
2013,09,22,17,42,14.20
2013,09,22,17,43,14.20
2013,09,22,17,44,14.10
2013,09,22,17,45,14.20
2013,09,22,17,46,14.20
2013,09,22,17,47,14.20
2013,09,22,17,48,14.20
2013,09,22,17,49,14.20
2013,09,22,17,50,14.20
2013,09,22,17,51,14.10
2013,09,22,17,52,14.10
2013,09,22,17,53,14.10
2013,09,22,17,54,14.10
2013,09,22,17,55,14.10
2013,09,22,17,56,14.10
2013,09,22,17,57,14.00
2013,09,22,17,58,14.00
2013,09,22,17,59,14.00
2013,09,22,18,00,14.00
2013,09,22,18,01,13.90
2013,09,22,18,02,13.90
2013,09,22,18,03,13.90
2013,09,22,18,04,13.90
2013,09,22,18,05,13.90
2013,09,22,18,06,13.90
2013,09,22,18,07,13.90
2013,09,22,18,08,13.80
2013,09,22,18,09,13.80
2013,09,22,18,10,13.80
2013,09,22,18,11,13.80
2013,09,22,18,12,13.80
2013,09,22,18,13,13.70
2013,09,22,18,14,13.70
2013,09,22,18,15,13.70
2013,09,22,18,16,13.70
2013,09,22,18,17,13.60
2013,09,22,18,18,13.60
2013,09,22,18,19,13.60
2013,09,22,18,20,13.60
2013,09,22,18,21,13.60
2013,09,22,18,22,13.50
2013,09,22,18,23,13.50
2013,09,22,18,24,13.50
2013,09,22,18,25,13.50
2013,09,22,18,26,13.40
2013,09,22,18,27,13.40
2013,09,22,18,28,13.40
2013,09,22,18,29,13.40
2013,09,22,18,30,13.40
2013,09,22,18,31,13.30
2013,09,22,18,32,13.30
2013,09,22,18,33,13.30
2013,09,22,18,34,13.30
2013,09,22,18,35,13.30
2013,09,22,18,36,13.20
2013,09,22,18,37,13.20
2013,09,22,18,38,13.20
2013,09,22,18,39,13.20
2013,09,22,18,40,13.20
2013,09,22,18,41,13.20
2013,09,22,18,42,13.10
2013,09,22,18,43,13.10
2013,09,22,18,44,13.10
2013,09,22,18,45,13.10
2013,09,22,18,46,13.10
2013,09,22,18,47,13.10
2013,09,22,18,48,13.10
2013,09,22,18,49,13.10
2013,09,22,18,50,13.10
2013,09,22,18,51,13.10
2013,09,22,18,52,13.10
2013,09,22,18,53,13.10
2013,09,22,18,54,13.10
